Location: Huberhof
(49.2050°N, 7.4980°E)
Time: 00:45:24
(UTC+00:00)

Cosmos 1689 Rocket - Pass Details

Date: 29 October 2020
Orbit: 360 x 375 km, 97.5° (Epoch: 26 November)

Event Time Altitude Azimuth Distance (km) Brightness Sun altitude
Exits shadow 18:19:10 12° 352° (N) 1,274 4.8 -21.0°
Maximum altitude 18:21:33 31° 290° (WNW) 668 3.9 -21.4°
Drops below altitude 10° 18:24:07 10° 225° (SW) 1,345 5.3 -21.9°
Sets 18:26:09 0° 215° (SW) 2,187 6.3 -22.2°
